This demonstration page uses our WeatherBlox Daily Observations layout. Learn more.

Left ArrowRight Arrow

39.12711, -84.51439

Hourly Observations for July 12, 2021

Temp ( °F °C ) Dew Point ( °F °C ) Humidity (%) Winds ( mph kmh ) Pressure ( in mb ) Visibility ( mi km ) Precip ( " mm )
12:53 am 00:53 Mostly Cloudy 72 22.2 70 21.1 94 94 N N/A 29.96 1015 10 16 N/A
1:18 am 01:18 Cloudy 73 22.8 70 21.1 90 90 N N/A 29.96 1015 10 16 N/A
1:43 am 01:43 Cloudy 72 22.2 70 21.1 94 94 N N/A 29.95 1014 10 16 N/A
1:53 am 01:53 Mostly Cloudy 72 22.2 70 21.1 94 94 N N/A 29.96 1015 10 16 N/A
2:53 am 02:53 Mostly Clear 71 21.7 69 20.6 94 94 N N/A 29.96 1015 8 13 N/A
3:22 am 03:22 Cloudy 70 21.1 69 20.6 97 97 S 3 6 29.98 1015 10 16 N/A
3:41 am 03:41 Mostly Cloudy 72 22.2 70 21.1 94 94 N N/A 29.97 1015 10 16 N/A
3:53 am 03:53 Partly Cloudy 70 21.1 69 20.6 97 97 N N/A 29.98 1015 10 16 N/A
4:53 am 04:53 Mostly Cloudy 71 21.7 69 20.6 94 94 SSW 3 6 29.99 1016 10 16 N/A
5:53 am 05:53 Cloudy 72 22.2 70 21.1 94 94 SSW 3 6 30.00 1016 10 16 N/A
6:37 am 06:37 Cloudy with Heavy Rain 72 22.2 69 20.6 91 91 S 9 15 30.00 1016 3 4 0.06 1.52
6:48 am 06:48 Cloudy with Heavy Rain 72 22 70 21 94 94 SSE 7 11 30.00 1016 3 5 0.15 3.81
6:53 am 06:53 Cloudy with Heavy Rain 72 22.2 69 20.6 91 91 S 8 13 30.01 1016 4 6 0.18 4.57
7:53 am 07:53 Cloudy with Mist and Fog 73 22.8 71 21.7 94 94 S 6 9 30.02 1017 5 8 0.01 0.25
8:53 am 08:53 Cloudy 75 23.9 72 22.2 90 90 S 8 13 30.04 1017 10 16 0.00 0.00
9:53 am 09:53 Cloudy 75 23.9 71 21.7 88 88 S 8 13 30.06 1018 10 16 N/A
10:53 am 10:53 Mostly Cloudy 77 25 71 21.7 82 82 SW 9 15 30.05 1018 10 16 0.00 0.00
11:00 am 11:00 Mostly Cloudy 77 25 72 22.2 85 85 S 9 15 30.05 1018 10 16 N/A
11:53 am 11:53 Mostly Cloudy with Light Rain 77 25 71 21.7 82 82 S 9 15 30.06 1018 6 10 0.00 0.00
12:53 pm 12:53 Partly Cloudy with Light Rain 79 26.1 70 21.1 74 74 SSW 13 20 30.06 1018 10 16 0.00 0.00
1:53 pm 13:53 Partly Cloudy 81 27.2 73 22.8 77 77 S 10 17 30.05 1018 10 16 0.00 0.00
2:53 pm 14:53 Mostly Sunny 81 27.2 72 22.2 74 74 S 9 15 30.04 1017 10 16 N/A
3:53 pm 15:53 Partly Cloudy 83 28.3 72 22.2 70 70 S 14 22 30.04 1017 10 16 N/A
4:53 pm 16:53 Partly Cloudy 83 28.3 71 21.7 67 67 S 12 19 30.02 1017 10 16 N/A
5:53 pm 17:53 Partly Cloudy 84 28.9 71 21.7 65 65 S 13 20 30.01 1016 10 16 N/A
6:53 pm 18:53 Partly Cloudy 83 28.3 71 21.7 67 67 S 13 20 30.01 1016 10 16 N/A
7:53 pm 19:53 Sunny 79 26.1 71 21.7 77 77 SSE 6 9 30.02 1017 10 16 N/A
8:53 pm 20:53 Partly Cloudy 78 25.6 71 21.7 79 79 SE 3 6 30.02 1017 10 16 N/A
9:53 pm 21:53 Partly Cloudy 76 24.4 71 21.7 85 85 N N/A 30.04 1017 10 16 N/A
9:55 pm 21:55 Partly Cloudy with Thunderstorms 76 24.4 71 21.7 85 85 N N/A 30.04 1017 10 16 N/A
10:26 pm 22:26 Partly Cloudy with Thunderstorms 75 23.9 71 21.7 88 88 WSW 15 24 30.05 1018 6 10 0.00 0.00
10:53 pm 22:53 Mostly Cloudy with Thunderstorms 72 22.2 69 20.6 91 91 N N/A 30.06 1018 10 16 0.34 8.64
11:07 pm 23:07 Partly Cloudy with Nearby Thunderstorms 71 21.7 69 20.6 94 94 N N/A 30.06 1018 10 16 N/A
11:26 pm 23:26 Partly Cloudy 72 22.2 70 21.1 94 94 N N/A 30.07 1018 10 16 N/A
11:53 pm 23:53 Cloudy with Light Rain 73 22.8 70 21.1 90 90 N N/A 30.06 1018 10 16 0.02 0.51

Powered by AerisWeather